Location: Oshawa
(43.9000°N, 78.8670°W)
Time: 06:24:27
(UTC-04:00)

Daily predictions for brighter satellites

Satellite Brightness Start Highest point End
(mag) Time Altitude Azimuth Time Altitude Azimuth Time Altitude Azimuth
Milstar 3 Cent rocket 4.3 21:20:19 10° SW 21:25:54 26° S 21:35:08 10° SE
Cosmos 1726 4.0 21:32:36 10° NNE 21:34:59 16° ENE 21:37:21 10° ESE
H-2A R/B 3.5 21:30:47 10° ESE 21:35:02 25° ENE 21:39:21 10° N
Cosmos 1340 Rocket 2.8 21:35:13 10° S 21:39:15 85° E 21:43:20 10° NNE
Cosmos 1818 3.6 21:33:57 10° NNW 21:39:27 82° NE 21:44:53 10° SE
Cosmos 1184 Rocket 3.0 21:36:11 10° SSW 21:39:32 78° W 21:42:55 10° N
Cosmos 2237 Rocket 3.5 21:36:03 10° NW 21:41:12 38° WSW 21:46:21 10° S
NOSS 3-4 (A) 4.3 21:34:56 10° NW 21:41:50 59° WSW 21:49:10 10° SSE
NOSS 3-4 (C) 4.3 21:35:01 10° NW 21:41:56 59° WSW 21:49:17 10° SSE
Cosmos 1741 Rocket 4.1 21:37:04 10° S 21:42:19 63° ESE 21:47:33 10° NNE
Cosmos 1766 Rocket 4.5 21:39:26 10° SSE 21:43:11 29° E 21:46:57 10° NNE
Terra 3.9 21:42:29 10° E 21:44:55 14° ENE 21:47:20 10° NNE
Cosmos 1603 4.4 21:43:14 10° NNW 21:48:35 40° ENE 21:53:51 10° SE
USA 245 4.2 21:46:56 10° SE 21:50:01 33° ENE 21:53:49 10° N
Resurs 01 Rocket 4.3 21:50:47 10° SW 21:53:40 17° W 21:56:35 10° NW
SL-08 RB Rocket 4.5 21:50:03 10° SE 21:54:15 38° ENE 21:58:31 10° N
Cosmos 2227 Rocket 3.8 21:52:11 10° SW 21:57:29 40° WNW 22:02:48 10° NNE
H-2A R/B 4.2 21:58:14 10° E 22:00:17 13° ENE 22:02:20 10° NNE
Cosmos 1674 2.6 21:57:19 10° S 22:01:03 72° E 22:04:49 10° NNE
Cosmos 1459 Rocket 4.0 21:55:27 10° N 22:01:47 76° E 22:07:59 10° SSE
Helios 1B rocket 3.5 21:57:52 10° N 22:01:53 48° WNW 22:05:52 10° SW
Cosmos 1908 3.2 22:00:05 10° N 22:04:00 88° W 22:07:51 10° S
H-2A ROCKET BODY 4.0 22:01:50 10° SSE 22:04:00 12° SE 22:07:08 10° ESE
Cosmos 2084 3.1 22:00:20 10° SSW 22:04:20 81° SE 22:08:11 10° NE
Cosmos 1943 4.4 21:59:45 10° N 22:04:40 29° NE 22:09:33 10° ESE
Cosmos 2100 Rocket 4.1 21:58:20 10° N 22:04:41 86° E 22:11:03 10° S
SL-16 R/B 2.7 22:00:01 10° NNW 22:05:35 58° WSW 22:11:06 10° S
ARGOS 3.3 22:01:35 10° SSE 22:06:57 67° ENE 22:12:20 10° N
MetOp-A 4.2 22:01:49 10° SSE 22:07:10 85° ENE 22:12:33 10° NNW
Cosmos 2061 Rocket 4.1 22:02:15 10° N 22:08:40 78° E 22:15:05 10° SSE
Meteor 1-29 4.5 22:07:35 10° N 22:10:48 39° WNW 22:14:02 10° SW
ERBS 3.8 22:07:47 10° NNW 22:10:51 30° NNE 22:13:53 10° E
KORONAS-FOTON 3.7 22:11:08 10° S 22:14:54 70° E 22:18:42 10° NNE
Cosmos 2173 Rocket 4.0 22:10:02 10° N 22:16:13 86° W 22:22:27 10° S
Cosmos 2208 Rocket 4.4 22:11:20 10° NNW 22:16:36 65° WSW 22:21:55 10° S
Cosmos 2123 Rocket 4.3 22:11:12 10° SSE 22:17:05 48° E 22:23:01 10° NNE
Cosmos 841 Rocket 4.4 22:24:00 10° N 22:28:53 37° ENE 22:32:30 16° ESE
SPOT 1/Viking Rocket 3.6 22:25:32 15° SSE 22:29:44 72° ENE 22:34:53 10° N
Cosmos 1242 Rocket 3.7 22:27:43 10° NNW 22:31:15 41° W 22:34:45 10° SSW
Cosmos 1763 Rocket 3.9 22:26:35 10° N 22:31:33 48° ENE 22:35:00 19° SE
Cosmos 220 Rocket 4.4 22:30:12 14° S 22:33:46 45° ESE 22:37:58 10° NNE
Cosmos 1356 Rocket 4.3 22:31:38 10° SSW 22:35:46 51° WNW 22:40:00 10° N
Cosmos 1802 Rocket 4.2 22:31:46 10° NNW 22:37:51 68° W 22:43:56 10° S
Cosmos 1725 Rocket 4.0 22:32:25 10° N 22:38:42 74° E 22:43:35 17° SSE
SPOT 5 3.2 22:37:41 14° S 22:41:50 66° WSW 22:46:55 10° NNW
Cosmos 2227 4.2 22:36:15 10° SSW 22:42:00 90° W 22:47:45 10° NNE
Cosmos 371 Rocket 3.3 22:37:50 10° NNW 22:42:40 73° ENE 22:45:45 22° SSE
Lacrosse 5 1.8 22:38:20 10° NW 22:43:26 82° SW 22:46:42 22° SE
Cosmos 2058 3.9 22:41:53 22° SE 22:43:40 31° E 22:47:25 10° NNE
Cosmos 1408 Rocket 4.0 22:40:07 10° SSW 22:44:22 62° W 22:48:40 10° N
Cosmos 1867 4.3 22:42:54 10° SW 22:48:15 57° NW 22:53:39 10° NNE
Tiangong 1 0.6 22:51:41 10° W 22:54:27 70° S 22:55:09 44° ESE
Abrixas rocket 2.2 22:52:06 10° WNW 22:55:21 80° NNE 22:56:48 30° ESE
RESURS DK-1 2.7 22:51:43 10° NW 22:55:49 57° WSW 22:58:06 24° S
CZ-4C R/B 4.1 22:56:27 11° E 22:56:27 11° E 22:57:14 10° E
USA 234 3.2 22:52:32 10° NE 22:59:07 86° SE 23:05:41 10° SW
Cosmos 468 Rocket 4.5 22:55:26 10° NNW 23:00:25 52° WSW 23:03:53 19° S
EO 1 Delta rocket 4.2 22:59:49 17° S 23:03:18 59° W 23:07:54 10° NNW
Cosmos 1500 Rocket 3.5 23:01:39 23° S 23:04:22 77° E 23:08:51 10° NNE
Cosmos 2151 3.0 23:02:31 28° SSE 23:04:41 64° E 23:08:57 10° NNE
SL-14 R/B 3.6 23:02:08 17° SSW 23:05:09 65° W 23:09:05 10° N
Cosmos 1626 2.6 23:05:11 35° SE 23:06:12 44° E 23:09:46 10° NNE
Landsat 7 3.9 23:04:12 24° S 23:07:05 75° WSW 23:11:52 10° NNW
Cosmos 2263 Rocket 2.3 23:04:26 21° S 23:08:00 53° ESE 23:13:27 10° NE
Meteor 2-10 4.4 23:02:33 10° NNW 23:08:07 68° W 23:12:05 20° S
Cosmos 1300 3.4 23:04:25 10° NNW 23:08:07 48° W 23:10:19 22° SSW
Cosmos 1503 Rocket 4.5 23:08:11 28° SSE 23:10:17 41° ESE 23:15:08 10° NE
Cosmos 1726 3.5 23:07:06 10° NNW 23:10:25 32° W 23:12:45 16° SSW
Cosmos 1328 4.4 23:09:20 16° SSW 23:12:26 54° W 23:16:25 10° N
H-2A R/B 2.8 23:10:15 17° S 23:14:06 49° W 23:19:23 10° NNW
CARTOSAT-1 3.5 23:12:30 31° SSE 23:14:31 87° WSW 23:18:52 10° NNW
ATLAS 5 CENTAUR R/B 4.1 23:11:07 10° W 23:15:15 28° NW 23:19:44 10° NNE
CZ-4 R/B 4.0 23:16:27 10° NNE 23:21:15 55° E 23:23:08 33° SSE
Terra 1.9 23:19:38 29° S 23:22:02 76° WSW 23:26:48 10° NNW
Cosmos 1805 Rocket 4.3 23:22:29 32° ESE 23:23:27 36° E 23:27:26 10° NNE
Cosmos 1633 Rocket 4.4 23:28:53 23° E 23:29:25 24° E 23:32:54 10° NE
CZ-4B R/B 3.7 23:25:03 10° NNE 23:30:15 55° E 23:32:19 34° SSE
SL-19 R/B 4.1 23:25:36 10° NNE 23:30:57 83° ESE 23:34:17 25° SSW
Cosmos 1515 Rocket 4.4 23:26:58 10° NNW 23:31:04 42° W 23:33:16 23° SSW
Cosmos 2233 Rocket 4.1 23:25:47 10° NNW 23:31:58 71° W 23:35:40 25° S
Cosmos 540 Rocket 3.6 23:28:51 10° NNW 23:33:59 64° ENE 23:36:05 35° SE
Cosmos 1151 Rocket 3.7 23:31:30 10° NNW 23:35:45 50° W 23:37:43 28° SSW
H-2A R/B 2.2 23:34:10 36° S 23:35:48 67° WSW 23:40:02 10° NNW
CZ-2C R/B 4.4 23:37:55 21° ESE 23:40:45 33° ENE 23:45:45 10° N
Cosmos 1455 2.1 23:37:59 10° N 23:41:53 89° E 23:42:40 55° S
Cosmos 1844 Rocket 4.0 23:41:56 22° ESE 23:42:26 22° E 23:46:37 10° NE
IGS 5A 4.2 23:41:12 30° SSW 23:42:46 44° W 23:46:46 10° NNW
Cosmos 1869 3.8 23:39:40 10° N 23:43:29 44° ENE 23:44:06 40° ESE
Cosmos 304 Rocket 3.7 23:41:32 10° NNW 23:46:21 86° WSW 23:47:54 44° SSE
ERBS 3.5 23:44:28 10° WNW 23:47:11 30° WSW 23:47:11 30° WSW
Cosmos 1943 3.8 23:43:31 10° NW 23:48:55 47° WSW 23:51:21 29° SSW
Spot 4 3.8 23:47:15 40° S 23:49:01 80° WSW 23:53:56 10° NNW
CZ-4C R/B 3.5 23:49:57 50° SSE 23:51:01 81° ENE 23:55:26 10° N
Cosmos 1354 Rocket 4.0 23:51:23 28° SSW 23:54:14 81° WNW 23:59:30 10° NNE
Cosmos 1400 Rocket 4.4 23:55:02 23° E 23:55:02 23° E 23:58:17 10° NE
